User: anonymous   Login
Location: Unspecified
(0.0000°N, 0.0000°E)
Time: 10:06:22
(UTC+00:00)
Language:

STARLINK-33625 - Orbit

View from above orbital plane
View from above orbital plane
View from above satellite
View from above satellite

Ground track
Ground track

The orbit is defined by the following mean orbital elements,

1 63327U          26145.50750292 +.00000000 +00000-0 +61362-3 0 00003
2 63327  43.0012 309.4197 0001279 267.8345  92.2360 15.27590493    07
Epoch (UTC): 25 May 2026 12:10:48
Eccentricity: 0.0001279
inclination: 43.0012°
perigee height: 482 km
apogee height: 484 km
right ascension of ascending node: 309.4197°
argument of perigee: 267.8345°
revolutions per day: 15.27590493
mean anomaly at epoch: 92.2360°

The dashed part of the orbit path shows where the satellite is in the earth's shadow,  

DLR